timestamp,wind_dir_avg,wind_spd_avg,wind_spd_max_dir,wind_spd_gust,battery_voltage,lat,long
2024-03-26 00:04:00+00:00,347.0,2.61,314.0,3.66,12.33,47.59359,-54.27349
2024-03-26 00:14:00+00:00,332.0,3.78,317.0,4.52,12.25,47.59359,-54.27349
2024-03-26 00:24:00+00:00,352.0,3.07,330.0,4.01,12.25,47.59359,-54.27349
2024-03-26 00:34:00+00:00,323.0,3.67,314.0,4.45,12.25,47.59359,-54.27349
2024-03-26 00:44:00+00:00,331.0,3.08,310.0,3.82,12.25,47.59359,-54.27349
2024-03-26 00:54:00+00:00,346.0,3.01,324.0,3.57,12.25,47.59359,-54.27349
2024-03-26 01:04:00+00:00,353.0,2.67,332.0,3.12,12.25,47.59359,-54.27349
2024-03-26 01:14:00+00:00,12.0,1.73,321.0,3.13,12.17,47.59359,-54.27349
2024-03-26 01:24:00+00:00,220.0,3.04,222.0,3.92,12.17,47.59359,-54.27349
2024-03-26 01:34:00+00:00,266.0,3.27,270.0,3.42,12.17,47.59359,-54.27349
2024-03-26 01:44:00+00:00,289.0,4.65,290.0,4.67,12.17,47.59359,-54.27349
2024-03-26 01:54:00+00:00,293.0,3.64,305.0,4.08,12.17,47.59359,-54.27349
2024-03-26 02:04:00+00:00,291.0,3.16,285.0,3.34,12.17,47.59359,-54.27349
2024-03-26 02:14:01+00:00,256.0,1.55,256.0,1.97,12.17,47.59359,-54.27349
2024-03-26 02:24:01+00:00,206.0,0.78,220.0,1.12,12.17,47.59359,-54.27349
2024-03-26 02:34:01+00:00,270.0,1.24,253.0,1.61,12.17,47.59359,-54.27349
2024-03-26 02:44:01+00:00,304.0,3.28,306.0,3.53,12.17,47.59359,-54.27349
2024-03-26 02:54:01+00:00,347.0,1.53,340.0,1.98,12.17,47.59359,-54.27349
2024-03-26 03:04:01+00:00,273.0,2.24,274.0,2.5,12.17,47.59359,-54.27349
2024-03-26 03:14:00+00:00,347.0,3.82,346.0,4.26,12.09,47.59359,-54.27349
2024-03-26 03:24:00+00:00,325.0,4.87,326.0,5.36,12.09,47.59359,-54.27349
2024-03-26 03:34:00+00:00,337.0,2.78,332.0,3.11,12.09,47.59359,-54.27349
2024-03-26 03:44:00+00:00,349.0,3.84,345.0,4.32,12.09,47.59359,-54.27349
2024-03-26 03:54:00+00:00,351.0,1.94,350.0,2.23,12.09,47.59359,-54.27349
2024-03-26 04:04:00+00:00,31.0,1.31,45.0,1.78,12.09,47.59359,-54.27349
2024-03-26 04:14:00+00:00,71.0,0.83,55.0,1.33,12.09,47.59359,-54.27349
2024-03-26 04:24:00+00:00,21.0,2.14,18.0,2.48,12.09,47.59359,-54.27349
2024-03-26 04:34:00+00:00,16.0,1.61,23.0,2.1,12.09,47.59359,-54.27349
2024-03-26 04:44:00+00:00,0.0,2.94,357.0,3.19,12.09,47.59359,-54.27349
2024-03-26 04:54:00+00:00,354.0,3.21,356.0,3.35,12.09,47.59359,-54.27349
2024-03-26 05:04:00+00:00,6.0,3.85,3.0,4.2,12.09,47.59359,-54.27349
2024-03-26 05:14:00+00:00,340.0,3.2,340.0,3.64,12.09,47.59359,-54.27349
2024-03-26 05:24:00+00:00,340.0,3.43,335.0,3.62,12.09,47.59359,-54.27349
2024-03-26 05:34:00+00:00,336.0,4.3,341.0,4.66,12.09,47.59359,-54.27349
2024-03-26 05:44:00+00:00,343.0,3.02,340.0,3.51,12.09,47.59359,-54.27349
2024-03-26 05:54:00+00:00,338.0,3.33,339.0,3.73,12.09,47.59359,-54.27349
2024-03-26 06:04:00+00:00,359.0,3.85,1.0,4.28,12.09,47.59359,-54.27349
2024-03-26 06:14:01+00:00,346.0,3.57,348.0,3.88,12.09,47.59359,-54.27349
2024-03-26 06:24:01+00:00,0.0,4.24,2.0,4.49,12.09,47.59359,-54.27349
2024-03-26 06:34:01+00:00,351.0,3.62,351.0,3.9,12.09,47.59359,-54.27349
2024-03-26 06:44:01+00:00,6.0,2.89,6.0,3.29,12.09,47.59359,-54.27349
2024-03-26 06:54:01+00:00,4.0,2.74,5.0,3.26,12.09,47.59359,-54.27349
2024-03-26 07:04:01+00:00,8.0,2.33,15.0,2.71,12.09,47.59359,-54.27349
2024-03-26 07:14:00+00:00,4.0,2.52,358.0,3.01,12.01,47.59359,-54.27349
2024-03-26 07:24:00+00:00,3.0,2.9,2.0,3.29,12.01,47.59359,-54.27349
2024-03-26 07:34:00+00:00,16.0,2.67,23.0,3.08,12.01,47.59359,-54.27349
2024-03-26 07:44:00+00:00,14.0,2.35,7.0,2.64,12.01,47.59359,-54.27349
2024-03-26 07:54:00+00:00,23.0,2.19,27.0,2.71,12.01,47.59359,-54.27349
2024-03-26 08:04:00+00:00,17.0,1.41,9.0,1.67,12.01,47.59359,-54.27349
2024-03-26 08:14:01+00:00,7.0,1.71,4.0,2.02,12.01,47.59359,-54.27349
2024-03-26 08:24:01+00:00,0.0,1.89,2.0,2.13,12.01,47.59359,-54.27349
2024-03-26 08:34:01+00:00,7.0,1.66,3.0,1.88,12.01,47.59359,-54.27349
2024-03-26 08:44:01+00:00,23.0,2.14,26.0,2.42,12.01,47.59359,-54.27349
2024-03-26 08:54:01+00:00,14.0,2.46,15.0,2.87,12.01,47.59359,-54.27349
2024-03-26 09:04:01+00:00,24.0,2.11,27.0,2.43,12.01,47.59359,-54.27349
2024-03-26 09:14:01+00:00,42.0,1.09,35.0,1.57,12.01,47.59359,-54.27349
2024-03-26 09:24:01+00:00,47.0,1.18,36.0,1.62,12.01,47.59359,-54.27349
2024-03-26 09:34:01+00:00,39.0,1.89,44.0,2.19,12.01,47.59359,-54.27349
2024-03-26 09:44:01+00:00,18.0,1.68,18.0,1.87,12.01,47.59359,-54.27349
2024-03-26 09:54:01+00:00,3.0,1.83,2.0,2.07,12.01,47.59359,-54.27349
2024-03-26 10:04:01+00:00,358.0,2.11,354.0,2.71,12.01,47.59359,-54.27349
2024-03-26 10:14:00+00:00,354.0,2.25,355.0,2.72,12.17,47.59359,-54.27349
2024-03-26 10:24:00+00:00,354.0,2.13,354.0,2.45,12.17,47.59359,-54.27349
2024-03-26 10:34:00+00:00,357.0,1.81,359.0,2.13,12.17,47.59359,-54.27349
2024-03-26 10:44:00+00:00,10.0,1.57,7.0,1.84,12.17,47.59359,-54.27349
2024-03-26 10:54:00+00:00,3.0,2.25,0.0,2.56,12.17,47.59359,-54.27349
2024-03-26 11:04:00+00:00,13.0,3.03,12.0,3.31,12.17,47.59359,-54.27349
2024-03-26 11:14:00+00:00,12.0,3.6,22.0,3.91,13.68,47.59359,-54.27349
2024-03-26 11:24:00+00:00,7.0,3.01,15.0,3.33,13.68,47.59359,-54.27349
2024-03-26 11:34:00+00:00,7.0,3.3,3.0,3.76,13.68,47.59359,-54.27349
2024-03-26 11:44:00+00:00,29.0,4.12,44.0,4.98,13.68,47.59359,-54.27349
2024-03-26 11:54:00+00:00,15.0,3.47,31.0,4.22,13.68,47.59359,-54.27349
2024-03-26 12:04:00+00:00,37.0,3.96,53.0,5.12,13.68,47.59359,-54.27349
2024-03-26 12:14:00+00:00,41.0,3.77,53.0,4.94,13.92,47.59359,-54.27349
2024-03-26 12:24:00+00:00,32.0,3.38,57.0,5.05,13.92,47.59359,-54.27349
2024-03-26 12:34:00+00:00,43.0,3.74,54.0,4.66,13.92,47.59359,-54.27349
2024-03-26 12:44:00+00:00,49.0,3.27,50.0,3.86,13.92,47.59359,-54.27349
2024-03-26 12:54:00+00:00,43.0,4.48,46.0,4.93,13.92,47.59359,-54.27349
2024-03-26 13:04:00+00:00,52.0,4.02,40.0,4.61,13.92,47.59359,-54.27349
2024-03-26 13:14:00+00:00,52.0,4.14,52.0,4.42,13.76,47.59359,-54.27349
2024-03-26 13:24:00+00:00,46.0,4.44,45.0,4.96,13.76,47.59359,-54.27349
2024-03-26 13:34:00+00:00,48.0,4.37,49.0,4.94,13.76,47.59359,-54.27349
2024-03-26 13:44:00+00:00,50.0,3.94,51.0,4.21,13.76,47.59359,-54.27349
2024-03-26 13:54:00+00:00,54.0,3.73,58.0,4.05,13.76,47.59359,-54.27349
2024-03-26 14:04:00+00:00,58.0,3.44,47.0,3.7,13.76,47.59359,-54.27349
2024-03-26 14:14:01+00:00,61.0,3.43,61.0,3.83,14.56,47.59359,-54.27349
2024-03-26 14:24:01+00:00,52.0,3.42,52.0,3.95,14.56,47.59359,-54.27349
2024-03-26 14:34:01+00:00,56.0,3.65,58.0,3.97,14.56,47.59359,-54.27349
2024-03-26 14:44:01+00:00,56.0,3.08,59.0,3.28,14.56,47.59359,-54.27349
2024-03-26 14:54:01+00:00,55.0,2.76,52.0,3.08,14.56,47.59359,-54.27349
2024-03-26 15:04:01+00:00,53.0,2.91,53.0,3.2,14.56,47.59359,-54.27349
2024-03-26 15:14:00+00:00,50.0,2.21,53.0,2.62,14.48,47.59359,-54.27349
2024-03-26 15:24:00+00:00,45.0,2.14,44.0,2.35,14.48,47.59359,-54.27349
2024-03-26 15:34:00+00:00,40.0,1.73,40.0,2.12,14.48,47.59359,-54.27349
2024-03-26 15:44:00+00:00,42.0,1.93,42.0,2.27,14.48,47.59359,-54.27349
2024-03-26 15:54:00+00:00,13.0,1.55,19.0,1.77,14.48,47.59359,-54.27349
2024-03-26 16:04:00+00:00,357.0,1.3,357.0,1.55,14.48,47.59359,-54.27349
2024-03-26 16:14:01+00:00,321.0,0.9,327.0,1.14,13.6,47.59359,-54.27349
2024-03-26 16:24:01+00:00,320.0,1.39,323.0,1.54,13.6,47.59359,-54.27349
2024-03-26 16:34:01+00:00,336.0,1.27,331.0,1.49,13.6,47.59359,-54.27349
2024-03-26 16:44:01+00:00,264.0,1.53,264.0,1.67,13.6,47.59359,-54.27349
2024-03-26 16:54:01+00:00,293.0,0.9,292.0,1.0,13.6,47.59359,-54.27349
2024-03-26 17:04:01+00:00,298.0,1.12,302.0,1.26,13.6,47.59359,-54.27349
2024-03-26 17:14:00+00:00,299.0,0.89,302.0,1.5,14.48,47.59359,-54.27349
2024-03-26 17:24:00+00:00,260.0,0.86,259.0,0.93,14.48,47.59359,-54.27349
2024-03-26 17:34:00+00:00,204.0,1.02,207.0,1.08,14.48,47.59359,-54.27349
2024-03-26 17:44:00+00:00,250.0,1.54,252.0,1.85,14.48,47.59359,-54.27349
2024-03-26 17:54:00+00:00,315.0,0.01,267.0,0.0,14.48,47.59359,-54.27349
2024-03-26 18:04:00+00:00,54.0,0.39,274.0,2.32,14.48,47.59359,-54.27349
2024-03-26 18:14:00+00:00,176.0,0.7,250.0,2.31,14.4,47.59359,-54.27349
2024-03-26 18:24:00+00:00,100.0,1.99,101.0,2.23,14.4,47.59359,-54.27349
2024-03-26 18:34:00+00:00,119.0,1.2,253.0,2.45,14.4,47.59359,-54.27349
2024-03-26 18:44:00+00:00,92.0,2.01,91.0,2.09,14.4,47.59359,-54.27349
2024-03-26 18:54:00+00:00,107.0,1.82,107.0,1.99,14.4,47.59359,-54.27349
2024-03-26 19:04:00+00:00,113.0,1.94,112.0,2.1,14.4,47.59359,-54.27349
2024-03-26 19:14:00+00:00,112.0,2.31,110.0,2.54,13.92,47.59359,-54.27349
2024-03-26 19:24:00+00:00,110.0,1.82,110.0,2.01,13.92,47.59359,-54.27349
2024-03-26 19:34:00+00:00,114.0,1.19,252.0,1.84,13.92,47.59359,-54.27349
2024-03-26 19:44:00+00:00,276.0,0.09,87.0,2.14,13.92,47.59359,-54.27349
2024-03-26 19:54:00+00:00,315.0,0.01,273.0,0.0,13.92,47.59359,-54.27349
2024-03-26 20:04:00+00:00,315.0,0.01,255.0,0.0,13.92,47.59359,-54.27349
2024-03-26 20:14:00+00:00,315.0,0.01,255.0,0.0,13.6,47.59359,-54.27349
2024-03-26 20:24:00+00:00,248.0,1.76,250.0,1.91,13.6,47.59359,-54.27349
2024-03-26 20:34:00+00:00,279.0,1.31,279.0,1.78,13.6,47.59359,-54.27349
2024-03-26 20:44:00+00:00,291.0,1.22,294.0,1.34,13.6,47.59359,-54.27349
2024-03-26 20:54:00+00:00,315.0,0.01,289.0,0.0,13.6,47.59359,-54.27349
2024-03-26 21:04:00+00:00,315.0,0.01,289.0,0.0,13.6,47.59359,-54.27349
2024-03-26 21:14:00+00:00,277.0,0.79,278.0,0.81,13.29,47.59359,-54.27349
2024-03-26 21:24:00+00:00,315.0,0.01,294.0,0.0,13.29,47.59359,-54.27349
2024-03-26 21:34:00+00:00,281.0,0.87,283.0,0.94,13.29,47.59359,-54.27349
2024-03-26 21:44:00+00:00,341.0,0.37,339.0,0.43,13.29,47.59359,-54.27349
2024-03-26 21:54:00+00:00,17.0,1.46,17.0,1.49,13.29,47.59359,-54.27349
2024-03-26 22:04:00+00:00,29.0,1.05,32.0,1.29,13.29,47.59359,-54.27349
2024-03-26 22:14:01+00:00,203.0,0.34,199.0,0.51,12.73,47.59359,-54.27349
2024-03-26 22:24:01+00:00,218.0,0.69,217.0,0.89,12.73,47.59359,-54.27349
2024-03-26 22:34:01+00:00,268.0,0.32,270.0,0.39,12.73,47.59359,-54.27349
2024-03-26 22:44:01+00:00,286.0,0.48,290.0,0.53,12.73,47.59359,-54.27349
2024-03-26 22:54:01+00:00,271.0,0.98,269.0,1.04,12.73,47.59359,-54.27349
2024-03-26 23:04:01+00:00,214.0,5.04,217.0,5.77,12.73,47.59359,-54.27349
2024-03-26 23:14:00+00:00,213.0,4.39,214.0,5.69,12.33,47.59359,-54.27349
2024-03-26 23:24:00+00:00,218.0,3.25,225.0,4.55,12.33,47.59359,-54.27349
2024-03-26 23:34:00+00:00,235.0,4.6,234.0,4.95,12.33,47.59359,-54.27349
2024-03-26 23:44:00+00:00,240.0,4.55,248.0,5.39,12.33,47.59359,-54.27349
2024-03-26 23:54:00+00:00,239.0,4.35,237.0,4.64,12.33,47.59359,-54.27349
